Nassau, Bahamas

2:11 PM EDT on May 26, 2017 (GMT -0400)
Nassau International

Weather History for MYNN - September, 2013

Change the Weather History Date:

Tuesday, September 10, 2013

  Actual Average Record
Temperature  
Mean Temperature 78 °F -  
Max Temperature 84 °F 87 °F 96 °F (2005)
Min Temperature 73 °F 73 °F 73 °F (2013)
Cooling Degree Days 14    
Growing Degree Days 28 (Base 50)    
Moisture  
Dew Point 75 °F    
Average Humidity 86    
Maximum Humidity 100    
Minimum Humidity 63    
Precipitation  
Precipitation 1.42 in 0.23 in - ()
Sea Level Pressure  
Sea Level Pressure 30.01 in    
Wind  
Wind Speed 2 mph ()    
Max Wind Speed 12 mph    
Max Gust Speed -    
Visibility 6.4 miles    
Events Rain , Thunderstorm    
Averages and records for this station are not official NWS values.
T = Trace of Precipitation, MM = Missing Value Source: Averaged Metar Reports

Daily Weather History Graph

Daily Weather History Graph

Search for Another Location

Airport or City:

Trip Planner

Search our weather history database for the weather conditions in past years. The results will help you decide how hot, cold, wet, or windy it might be!

Date:

Astronomy

Sep. 10, 2013 Rise Set
Actual Time 6:54 AM EDT 7:18 PM EDT
Civil Twilight 6:31 AM EDT 7:41 PM EDT
Nautical Twilight 6:04 AM EDT 8:08 PM EDT
Astronomical Twilight 5:37 AM EDT 8:35 PM EDT
Moon 11:41 AM EDT (9/10) 10:57 PM EDT (9/10)
Length of Visible Light 13h 10m
Length of Day
12h 24m
Waxing Crescent, 28% of the Moon is Illuminated
Sep 10
Waxing Crescent
Sep 12
First Quarter
Sep 19
Full
Sep 26
Last Quarter
Oct 4
New

Hourly Weather History & Observations

Time (EDT) Temp. Heat Index Dew Point Humidity Pressure Visibility Wind Dir Wind Speed Gust Speed Precip Events Conditions
12:00 AM 80.6 °F 85.4 °F 73.4 °F 79% 29.99 in 6.2 mi Calm Calm - N/A   Mostly Cloudy
1:00 AM 78.8 °F - 75.2 °F 89% 29.99 in - NE 3.5 mph - N/A   Mostly Cloudy
2:00 AM 80.6 °F 87.1 °F 77.0 °F 89% - 6.2 mi Variable 2.3 mph - N/A   Mostly Cloudy
5:00 AM 79 °F - 76 °F 90% 29.96 in 9 mi 2.3 mph - -   Scattered Clouds
5:00 AM 78.8 °F - 77.0 °F 94% 29.96 in 6.2 mi Variable 2.3 mph - N/A   Partly Cloudy
6:00 AM 78.8 °F - 75.2 °F 89% 29.96 in 6.2 mi Variable 1.2 mph - N/A   Partly Cloudy
7:00 AM 80.6 °F 86.2 °F 75.2 °F 84% 29.98 in 6.2 mi East 3.5 mph - N/A   Scattered Clouds
8:00 AM 80 °F - 77 °F 88% 29.99 in 9 mi Calm Calm - -   Mostly Cloudy
8:00 AM 80.6 °F 87.1 °F 77.0 °F 89% 29.98 in 6.2 mi Calm Calm - N/A   Mostly Cloudy
9:00 AM 86.0 °F 96.9 °F 77.0 °F 74% 30.01 in 6.2 mi East 3.5 mph - N/A   Mostly Cloudy
10:00 AM 75.2 °F - 71.6 °F 89% 30.02 in 4.3 mi East 9.2 mph - N/A Rain , Thunderstorm Thunderstorms and Rain
11:00 AM 81 °F - 78 °F 88% 30.03 in 9 mi Calm Calm - -   Partly Cloudy
11:00 AM 80.6 °F 88.1 °F 78.8 °F 94% 30.02 in 6.2 mi Calm Calm - N/A   Scattered Clouds
12:00 PM 91.4 °F 105.1 °F 77.0 °F 63% 30.02 in 6.2 mi ESE 5.8 mph - N/A   Scattered Clouds
1:00 PM 80.6 °F 87.1 °F 77.0 °F 89% 30.01 in 5.6 mi SE 6.9 mph - N/A Rain Rain Showers
2:00 PM 82 °F - 78 °F 83% 30.02 in 6 mi East 6.9 mph - - Rain Heavy Rain Showers
2:00 PM 82.4 °F 92.4 °F 78.8 °F 89% 30.02 in 5.0 mi East 6.9 mph - N/A Rain Rain Showers
2:17 PM 75.2 °F - 69.8 °F 83% 30.02 in 5.6 mi WNW 11.5 mph - N/A Rain , Thunderstorm Light Thunderstorms and Rain
3:00 PM 73.4 °F - 69.8 °F 88% 30.03 in - Variable 3.5 mph - N/A Rain , Thunderstorm Thunderstorms and Rain
3:22 PM 73.4 °F - 69.8 °F 88% 30.01 in 3.7 mi Variable 3.5 mph - N/A Rain , Thunderstorm Light Thunderstorms and Rain
4:00 PM 78.8 °F - 71.6 °F 78% 29.98 in 6.2 mi Variable 2.3 mph - N/A   Mostly Cloudy
5:00 PM 83 °F - 77 °F 77% 30.00 in 8 mi East 2.3 mph - -   Partly Cloudy
5:00 PM 82.4 °F 90.9 °F 77.0 °F 84% 30.00 in 6.2 mi Variable 2.3 mph - N/A   Mostly Cloudy
6:00 PM 75.2 °F - 71.6 °F 89% 30.00 in 5.6 mi Variable 3.5 mph - N/A Rain Light Rain Showers
7:00 PM 78.8 °F - 71.6 °F 78% 30.01 in 5.6 mi Variable 3.5 mph - N/A Rain Light Rain
7:05 PM 78.8 °F - 71.6 °F 78% 30.03 in 5.6 mi Variable 3.5 mph - N/A Rain , Thunderstorm Light Thunderstorms and Rain
8:00 PM 76 °F - 75 °F 95% 30.04 in 8 mi NE 2.3 mph - - Thunderstorm Thunderstorm
8:00 PM 75.2 °F - 75.2 °F 100% 30.03 in 6.2 mi Variable 2.3 mph - N/A Thunderstorm Thunderstorm
9:00 PM 78.8 °F - 71.6 °F 78% 30.03 in 6.2 mi Calm Calm - N/A   Mostly Cloudy
10:00 PM 77.0 °F - 71.6 °F 83% 30.06 in 6.2 mi Variable 3.5 mph - N/A   Mostly Cloudy
11:00 PM 78 °F - 76 °F 94% 30.04 in 8 mi Calm Calm - -   Partly Cloudy
11:00 PM 78.8 °F - 77.0 °F 94% 30.04 in 6.2 mi Calm Calm - N/A   Mostly Cloudy